This is the latest recevied weather packets stored in our database for station/object WX1NWA. If no packets are shown the sender has not sent any weather packets the latest 10 day(s).
| Time | Temp. | Humidity | Pressure | Rain* | Wind** | Luminosity | Snow |
|---|---|---|---|---|---|---|---|
| 1777560635 | 10° C | 75% | 1020.4 hPa | 0 mm | - | 360 W/m² | - |
| 1777560333 | 10° C | 73% | 1020.8 hPa | 0 mm | - | 386 W/m² | - |
| 1777560031 | 10° C | 73% | 1020.7 hPa | 0 mm | - | 417 W/m² | - |
| 1777559726 | 9.44° C | 74% | 1020.7 hPa | 0 mm | - | 415 W/m² | - |
| 1777559423 | 9.44° C | 76% | 1020.2 hPa | 0 mm | - | 420 W/m² | - |
| 1777559121 | 9.44° C | 75% | 1020.6 hPa | 0 mm | - | 367 W/m² | - |
| 1777558821 | 9.44° C | 75% | 1020.6 hPa | 0 mm | - | 326 W/m² | - |
| 1777558516 | 8.89° C | 75% | 1020.7 hPa | 0 mm | - | 266 W/m² | - |
| 1777558213 | 9.44° C | 74% | 1020.9 hPa | 0 mm | - | 369 W/m² | - |
| 1777557909 | 9.44° C | 76% | 1020.7 hPa | 0 mm | - | 292 W/m² | - |
| 1777557606 | 8.89° C | 76% | 1020.7 hPa | 0 mm | - | 321 W/m² | - |
| 1777557302 | 8.89° C | 76% | 1020.6 hPa | 0 mm | - | 153 W/m² | - |
| 1777556998 | 8.89° C | 76% | 1020.8 hPa | 0 mm | - | 222 W/m² | - |
| 1777556694 | 9.44° C | 74% | 1021 hPa | 0 mm | - | 131 W/m² | - |
| 1777556390 | 10° C | 73% | 1020.7 hPa | 0 mm | - | 200 W/m² | - |
| 1777556085 | 9.44° C | 73% | 1021.2 hPa | 0 mm | - | 281 W/m² | - |
| 1777555785 | 9.44° C | 74% | 1021 hPa | 0 mm | - | 278 W/m² | - |
| 1777555482 | 8.89° C | 76% | 1020.9 hPa | 0 mm | - | 206 W/m² | - |
| 1777555178 | 8.89° C | 77% | 1020.8 hPa | 0 mm | - | 176 W/m² | - |
| 1777554876 | 8.89° C | 76% | 1020.6 hPa | 0 mm | - | 219 W/m² | - |
| 1777554572 | 8.89° C | 76% | 1020.4 hPa | 0 mm | - | 200 W/m² | - |
| 1777554269 | 8.89° C | 80% | 1020.6 hPa | 0 mm | - | 186 W/m² | - |
| 1777553966 | 8.89° C | 80% | 1020.7 hPa | 0 mm | - | 155 W/m² | - |
| 1777553662 | 8.89° C | 80% | 1020.8 hPa | 0 mm | - | 145 W/m² | - |
| 1777553359 | 8.89° C | 82% | 1020.7 hPa | 0 mm | - | 136 W/m² | - |
* Rain latest hour (hover to see other rain measurements)
** Current wind speed in m/s (hover to see current wind gust speed)